www.pogodaiklimat.ru

Погода и климат >> Архив погоды >> Боливия >> Rurrenabaque


ПОГОДА в Rurrenabaque

  • Прогноз погоды в Rurrenabaque
  • Монитор погоды в Rurrenabaque
  • Климат города

АРХИВ ПОГОДЫ в Rurrenabaque

Время (UTC), дата Ветер
(напр.,м/с)
 
Видим.   Явления Облачность Т
(С)
Тd
(С)
f
(%)
Тe
(С)
Тes
(С)
Комфортность P
(гПа)
Po
(гПа)
Тmin
(С)
Tmax
(С)
R
(мм)
R24
(мм)
S
(см)
12 15.10 штиль 0 8000 м осадки на расстоянии 8/5 450 м
[Cb calv Ac trans Ci fib]
+24.2 +23.8 98 +33 +35 очень
душно
1011.7 988.2 +20.2
15 15.10 В 2 20 км 6/1 500 м
[Cu med, cong Ac trans Ci fib]
+30.5 +25.2 73 +44 +56 опасность
перегрева
1011.7 988.1
18 15.10 С 2 20 км 8/6 600 м
[Cb cap Ci fib]
+34.8 +26.3 61 +51 +58 опасность
перегрева
1006.8 983.8
21 15.10 штиль 0 20 км 8/4 600 м
[Cb calv Ci ing]
+32.1 +25.8 69 +47 +50 опасность
перегрева
1004.3 981.2 +36.1
12 16.10 штиль 0 20 км 9/8 600 м
[Sc Ac trans Ci fib]
+25.2 +24.3 95 +35 +36 очень
душно
1008.5 985.4 +21.4
15 16.10 штиль 0 20 км 5/4 600 м
[Cu hum Ci fib]
+32.1 +26.0 70 +48 +62 опасность
перегрева
1007.8 984.7
18 16.10 С 2 20 км 6/6 600 м
[Cu med, cong Ci fib]
+35.2 +24.4 54 +48 +55 опасность
перегрева
1003.6 980.8
21 16.10 С 2 20 км 6/1 600 м
[Cu hum Ac trans Ci fib]
+35.0 +23.7 52 +46 +49 опасность
перегрева
1001.7 978.8 +36.2
12 17.10 штиль 0 20 км 4/0
[Ci fib]
+27.0 +24.5 86 +38 +43 очень
душно
1006.2 983.5 +23.1
15 17.10 штиль 0 20 км 6/3 500 м
[Cu hum Ci fib]
+34.4 +26.0 62 +50 +67 опасность
перегрева
1007.2 984.3
18 17.10 С 5 20 км 8/6 600 м
[Cu med, cong Ci fib]
+37.2 +25.9 53 +53 +56 опасность
перегрева
1003.9 980.9
21 17.10 С 2 20 км 8/4 600 м
[Cb cap Ci ing]
+33.5 +26.1 65 +49 +51 опасность
перегрева
1002.6 979.6 +37.9
12 18.10 штиль 0 20 км 8/6 400 м
[Sc Ci fib]
+25.8 +24.7 94 +37 +38 очень
душно
1007.8 984.7 +22.8
15 18.10 С 5 20 км 5/1 500 м
[Cu hum Ci fib]
+32.3 +25.9 69 +48 +56 опасность
перегрева
1008.1 985.0
18 18.10 С 2 20 км 5/4 600 м
[Cu hum Ci fib]
+35.4 +27.2 63 +54 +65 опасность
перегрева
1005.7 982.3
21 18.10 С 2 20 км 5/3 600 м
[Cb calv Ci fib]
+35.4 +25.2 56 +49 +52 опасность
перегрева
1002.6 979.1 +37.2
12 19.10 штиль 0 20 км 8/0 2000 м
[Ac trans Ci fib]
+26.0 +24.5 91 +36 +40 очень
душно
1007.6 984.1 +22.5
15 19.10 штиль 0 20 км 8/1 500 м
[Cu hum Ci sp]
+32.2 +25.4 67 +46 +66 опасность
перегрева
1007.7 984.8
18 19.10 С 3 20 км 8/1 600 м
[Cu med, cong Ac trans Ci fib]
+36.0 +24.1 50 +47 +56 опасность
перегрева
1004.7 981.7
21 19.10 С 6 18 км дым 5/0
[Ci fib]
+35.2 +25.0 56 +49 +50 опасность
перегрева
1002.3 979.3 +37.4
12 20.10 штиль 0 20 км 10/4 400 м
[Cu hum As op]
+25.4 +21.8 80 +33 +33 очень
душно
1011.3 987.9 +22.3
15 20.10 штиль 0 20 км 10/1 450 м
[Cu hum As op]
+27.0 +22.1 75 +35 +40 очень
душно
1011.0 988.6
18 20.10 штиль 0 20 км 10/6 600 м
[Sc As op]
+29.0 +22.8 69 +38 +41 очень
душно
1010.4 987.3
21 20.10 ЮВ 3 20 км 10/3 700 м
[Sc As op]
+27.8 +22.3 72 +36 +37 очень
душно
1007.5 984.4 +30.1
12 21.10 штиль 0 20 км 8/0 2000 м
[Ac As]
+25.8 +23.2 86 +35 +37 очень
душно
1010.7 987.4 +21.8
15 21.10 Ю 2 20 км 8/4 600 м
[Cu hum Ac trans Ci fib]
+34.0 +23.4 54 +45 +52 опасность
перегрева
1010.8 987.5
18 21.10 штиль 0 20 км 5/5 600 м
[Cu med, cong Ci fib]
+33.2 +24.2 59 +45 +58 опасность
перегрева
1006.2 983.1
21 21.10 штиль 0 20 км 5/5 600 м
[Cu med, cong]
+34.0 +24.7 58 +47 +49 опасность
перегрева
1002.7 979.4 +34.9

 

Местоположение метеостанции Rurrenabaque (Боливия): широта -14.46 долгота -67.56 высота над уровнем моря 204 м.

В архиве по умолчанию представлена погода в Rurrenabaque за последнюю неделю. Архивные данные за месяц целиком и за предыдущие месяцы, начиная с января 2011 года, Вы можете получить, выбрав интересующий диапазон дат из раскрывающегося списка и нажав кнопку "Ввод!".


*Определитесь, кто Вы:
робот инопланетянин человек

Внимание! Время в таблицах - всемирное. Для получения местного времени необходимо прибавить поправку, которая в Rurrenabaque равна -4 ч.

Смотрите также архив погоды в соседних городах и на ближайших метеорологических станциях:

Погода в Reyes (Боливия) (26 км)
Погода в Santa Rosa (Боливия) (78 км)
Погода в San Borja (Боливия) (87 км)
Погода в San Ignacio De Moxo (Боливия) (217 км)
Погода в Ovejuyo (Боливия) (235 км)
Погода в La Paz (Боливия) (238 км)
Погода в Santa Ana (Боливия) (243 км)
Погода в Baures (Боливия) (243 км)
Погода в Puerto Maldonado (Перу) (273 км)
Погода в Trinidad (Боливия) (288 км)

Пояснения к столбцам:

Ветер - указаны скорость ветра в м/с - средняя за 10 мин, порывы в срок и между сроками (в фигурных скобках) и направление, откуда дует ветер: С - северный, СВ - северо-восточный, В - восточный, ЮВ - юго-восточный, Ю - южный, ЮЗ - юго-западный, З - западный, СЗ - северо-западный.
Видимость - горизонтальная дальность видимости в метрах или километрах. При видимости от 1 до 10 км при отсутствии осадков обычно наблюдается дымка, при ухудшении видимости до 1 км и менее - туман. В сухую погоду видимость может ухудшаться дымом, пылью или мглою.
Явления - указаны атмосферные явления, наблюдавшиеся в срок или в последний час перед сроком; фигурными скобками обозначены явления, наблюдавшиеся между сроками (за 1-3 часа до срока); квадратными скобками обозначены град или гололедные отложения с указанием их диаметра в мм.
Облачность - указаны через наклонную черту общая и нижняя облачность в баллах и высота нижней границы облаков в метрах; квадратными скобками обозначены формы облаков: Ci - перистые, Cs - перисто-слоистые, Cc - перисто-кучевые, Ac - высококучевые, As - высокослоистые, Sc - слоисто-кучевые, Ns - слоисто-дождевые, Cu - кучевые, Cb - кучево-дождевые. Подробнее классификацию облаков см. в Атласе облаков (PDF).
T - Температура воздуха - температура, измеренная на высоте 2 м над землей.
Td - Температура точки росы - температура, при понижении до которой содержащийся в воздухе водяной пар достигнет насыщения.
f - Относительная влажность воздуха - влажноcть воздуха, измеренная на высоте 2 м над землей.
Te - Эффективная температура - температура, которую ощущает одетый по сезону человек в тени. Характеристика душности погоды. При расчете учитывается влияние влажности воздуха и скорости ветра на теплоощущения человека.
Tes - Эффективная температура на солнце - температура, которую ощущает человек, с поправкой на солнечный нагрев. Характеристика знойности погоды. Зависит от высоты солнца над горизонтом, облачности и скорости ветра. Ночью, в пасмурную погоду, а также при ветре 12 м/с и более поправка равна нулю.
P - Атмосферное давление - приведенное к уровню моря атмосферное давление.
Po - Атмосферное давление - измеренное на уровне метеостанции атмосферное давление.
Tmin - Минимальная температура - минимум температуры воздуха на высоте 2 м над землей.
Tmax - Максимальная температура - максимум температуры воздуха на высоте 2 м над землей.
R - Количество осадков - Количество выпавших осадков за период времени, мм. При наведении курсора мыши на число - период времени, за который выпало указанное количество осадков.
R24 - Количество осадков - Количество выпавших осадков за 24 часа, мм.
S - Снежный покров - Высота снежного покрова, см. При наведении курсора мыши на число - состояние снежного покрова и степень покрытия местности в баллах.